Home > Weather > Horgen > Past weeks

Flag for Switzerland Past Weather in Horgen, Zurich, Switzerland — Yesterday and Last 2 Weeks

Now
78 °F

Warm.


Feels Like: 79 °F
Forecast: 59 / 71 °F
Wind: 8 mph from Southwest

Location: Zuerich-Fluntern

Current Time: Aug 28, 2016 at 12:40:50 PM

Latest Report: Aug 28, 2016 at 11:00 AM


Visibility: N/A

Pressure: 30.05 "Hg

Humidity: 55%

Dew Point: 60 °F

Location of HorgenLocation

Past Weather in Horgen — Graph

°F

Horgen Temperature Yesterday

Maximum temperature yesterday: 87 °F (at 4:00 PM)
Minimum temperature yesterday: 64 °F (at 7:00 AM)
Average temperature yesterday: 75 °F

High & Low Weather Summary for the Past Weeks

 TemperatureHumidityPressure
High89 °F (Aug 26, 4:00 PM)97% (Aug 18, 6:00 PM)30.39 "Hg (Aug 18, 6:00 PM)
Low52 °F (Aug 22, 5:00 AM)37% (Aug 26, 5:00 PM)29.80 "Hg (Aug 17, 6:00 PM)
Average68 °F74%30.07 "Hg
* Reported Aug 13 11:00 AM — Aug 28 11:00 AM, Horgen, Weather by CustomWeather, © 2016

Note: Actual official high and low records may vary slightly from our data, if they occured in-between our weather recording intervals... More about our weather records

Advertising

Horgen Weather History for the Previous 24 Hours

Scroll right to see more
 ConditionsComfort  
Time TempWeatherWind HumidityBarometerVisibility
11:00 AM
Sun, Aug 28
78 °FWarm.8 mph55%30.05 "HgN/A
10:00 AM75 °FMild.7 mph62%30.06 "HgN/A
9:00 AM70 °FMild.3 mph79%30.06 "HgN/A
8:00 AM68 °FMild.No wind78%30.07 "HgN/A
7:00 AM70 °FMild.3 mph67%30.05 "HgN/A
6:00 AM69 °FMild.5 mph71%30.04 "HgN/A
5:00 AM71 °FMild.3 mph69%30.05 "HgN/A
4:00 AM71 °FMild.6 mph66%30.04 "HgN/A
3:00 AM69 °FMild.3 mph80%30.03 "HgN/A
2:00 AM70 °FMild.5 mph83%30.06 "HgN/A
1:00 AM72 °FMild.3 mph79%30.06 "HgN/A
12:00 AM74 °FMild.2 mph68%30.02 "HgN/A
11:00 PM
Sat, Aug 27
73 °FMild.No wind68%30.03 "HgN/A
10:00 PM73 °FMild.1 mph62%30.02 "HgN/A
8:00 PM76 °FPartly sunny.3 mph58%29.99 "HgN/A
7:00 PM80 °FWarm.2 mph58%29.97 "HgN/A
6:00 PM84 °FWarm.2 mph46%29.96 "HgN/A
5:00 PM85 °FWarm.5 mph43%29.96 "HgN/A
4:00 PM87 °FPleasantly warm.5 mph38%29.97 "HgN/A
3:00 PM87 °FWarm.2 mph43%29.98 "HgN/A
2:00 PM84 °FSunny.2 mph44%30.01 "HgN/A
1:00 PM82 °FWarm.3 mph50%30.03 "HgN/A
12:00 PM80 °FWarm.3 mph55%30.05 "HgN/A
Weather by CustomWeather, © 2016

See weather overviewHow to use our weather pages